metlocid,date_time,avg_pressta,std_pressta,min_pressta,max_pressta,n_pressta,n_comments
MISM,1/1/12,1132.727829,2.508132025,1129,1138,327,0
MISM,2/1/12,1145.909483,9.155446605,1127,1166,2784,0
MISM,3/1/12,1144.157258,6.774405694,1130,1155,2976,355
MISM,4/1/12,1142.013889,11.15415748,1114,1160,2880,1008
MISM,5/1/12,1140.395161,10.65756196,1114,1158,2976,1288
MISM,6/1/12,1151.543056,12.57213519,1132,1175,2880,1165
MISM,7/1/12,1140.455645,11.69808065,1126,1169,2976,1232
MISM,8/1/12,1143.728495,8.077203602,1121,1160,2976,899
MISM,9/1/12,1141.254167,7.963836943,1123,1162,2880,457
MISM,10/1/12,1138.71371,8.929680105,1120,1156,2976,108
MISM,11/1/12,1148.624696,5.452459387,1140,1160,2875,3
MISM,12/1/12,1149.513441,5.197525667,1139,1161,2976,16
MISM,1/1/13,1148.025538,6.151970625,1136,1161,2976,4
MISM,2/1/13,1140.130952,5.910695797,1127,1150,2688,0
MISM,3/1/13,1137.543011,7.082194376,1115,1151,2976,271
MISM,4/1/13,1144.726389,8.835897181,1123,1160,2880,688
MISM,5/1/13,1145.072581,9.527321572,1124,1164,2976,1219
MISM,6/1/13,1154.994444,8.266655089,1141,1177,2880,1482
MISM,7/1/13,1139.948925,31.40540143,0,1163,2976,1271
MISM,8/1/13,1146.660168,65.40625059,0,1179,2975,1056
MISM,9/1/13,1149.379514,38.03309372,0,1171,2880,703
MISM,10/1/13,1142.512097,9.323027685,1113,1159,2976,63
MISM,11/1/13,1140.490278,6.236948242,1124,1155,2880,904
MISM,12/1/13,1144.395161,6.176977867,1132,1157,2976,2976
MISM,1/1/14,1148.860215,4.68797315,1138,1157,2976,2976
MISM,2/1/14,1144.49256,7.595070463,1130,1164,2688,2688
MISM,3/1/14,1142.995968,6.902440236,1121,1157,2976,2976
MISM,4/1/14,1140.284722,7.728155868,1120,1161,2880,2880
MISM,5/1/14,1143.987903,6.650647647,1128,1159,2976,2976
MISM,6/1/14,1141.931944,6.875225497,1125,1153,2880,2880
MISM,7/1/14,1143.721774,9.481864672,1117,1164,2976,2976
MISM,8/1/14,1134.619624,11.41129345,1109,1164,2976,2976
MISM,9/1/14,1144.695833,7.281220283,1129,1164,2880,2880
MISM,10/1/14,1132.892473,10.76973024,1103,1152,2976,2976
MISM,11/1/14,1143.520139,37.24712974,0,1153,2880,2880
MISM,12/1/14,1143.278226,5.695158759,1130,1154,2976,2976
MISM,1/1/15,1145.396505,4.326510953,1138,1155,2976,2976
MISM,2/1/15,1138.322917,4.958619549,1125,1153,2688,2688
MISM,3/1/15,1142.901882,8.396544897,1117,1159,2976,2976
MISM,4/1/15,1141.422222,6.174676791,1127,1153,2880,2880
MISM,5/1/15,1145.197581,9.539300797,1127,1168,2976,2976
MISM,6/1/15,1145.411111,9.930240257,1123,1166,2880,2880
MISM,7/1/15,1136.69536,12.4188316,1116,1167,2974,2974
MISM,8/1/15,1137.399194,13.1885583,1107,1169,2976,2976
MISM,9/1/15,1135.218056,11.02416212,1104,1162,2880,2880
MISM,10/1/15,1139.056452,7.530029878,1122,1160,2976,2976
MISM,11/1/15,1137.355556,8.666005799,1117,1153,2880,2880
MISM,12/1/15,1144.637681,31.19733327,0,1164,2967,2967
MISM,1/1/16,1140.079301,5.579593219,1126,1154,2976,2976
MISM,2/1/16,1141.395115,8.304338976,1124,1160,2784,2784
MISM,3/1/16,1139.487903,6.837159087,1125,1155,2976,2976
MISM,4/1/16,1144.647222,9.471215194,1119,1161,2880,2880
MISM,5/1/16,1145.189516,9.975855102,1125,1164,2976,2976
MISM,6/1/16,1138.122222,9.647431486,1121,1161,2880,2880
MISM,7/1/16,1147.474462,6.111294383,1132,1166,2976,2976
MISM,8/1/16,1148.927419,11.26953687,1115,1168,2976,2976
MISM,9/1/16,1132.522222,10.67474512,1099,1154,2880,2880
MISM,10/1/16,1139.282258,7.54422041,1120,1155,2976,2976
MISM,11/1/16,1151.6125,6.918258158,1136,1167,2880,2880
MISM,12/1/16,1147.340955,30.0547559,0,1158,2974,2974
MISM,1/1/17,1152.217742,7.388269222,1127,1162,2976,2976
MISM,2/1/17,1148.278274,5.25082981,1139,1163,2688,2688
MISM,3/1/17,1149.137097,7.201681982,1140,1167,2976,2976
MISM,4/1/17,1142.734722,7.098799799,1127,1157,2880,2880
MISM,5/1/17,1138.280914,7.954347808,1121,1159,2976,2976
MISM,6/1/17,1141.841667,7.190548967,1122,1157,2880,2880
MISM,7/1/17,1138.707325,22.6538889,0,1163,2976,2976
MISM,8/1/17,1135.280914,9.678133647,1108,1164,2976,2976
MISM,9/1/17,1137.3625,7.905168002,1117,1154,2880,2880
MISM,10/1/17,1141.739247,7.581260752,1118,1158,2976,2976
MISM,11/1/17,1135.898611,7.339113655,1124,1154,2880,2880
MISM,12/1/17,1143.363851,4.476563645,1136,1153,2971,2972
MISM,1/1/18,1143.443548,6.980754242,1129,1160,2976,2976
MISM,2/1/18,1142.736607,6.596948631,1126,1154,2688,2688
MISM,3/1/18,1144.150538,8.654809886,1122,1160,2976,2976
MISM,4/1/18,1147.390278,9.711598931,1118,1162,2880,2880
MISM,5/1/18,1143.811828,10.34020665,1117,1166,2976,2976
MISM,6/1/18,1146.930556,10.129178,1119,1160,2880,2880
MISM,7/1/18,1143.251344,10.21147805,1119,1166,2976,2976
MISM,8/1/18,1149.592742,8.531708592,1128,1166,2976,2976
MISM,9/1/18,1134.009722,12.47875204,1100,1154,2880,2880
MISM,10/1/18,1132.658602,9.762854311,1110,1158,2976,2976
MISM,11/1/18,1136.472222,6.044117581,1124,1148,2880,2880
MISM,12/1/18,1140.8695,5.241966125,1131,1152,2000,2003
MISM,1/1/19,1145.797225,37.87705225,0,1157,1874,1872
MISM,2/1/19,1147.561012,9.352502039,1129,1164,2688,2688
MISM,3/1/19,1145.034946,6.813638463,1131,1158,2976,2976
MISM,4/1/19,1142.097222,5.926397513,1127,1153,2880,2880
MISM,5/1/19,1145.267473,11.65843138,1120,1165,2976,2976
MISM,6/1/19,1132.611111,11.59278447,1103,1163,2880,2880
MISM,7/1/19,1147.513441,10.84837381,1118,1168,2976,2976
MISM,8/1/19,1142.255376,13.42685023,1116,1176,2976,2976
MISM,9/1/19,1132.716667,7.924285682,1106,1144,2880,2880
MISM,10/1/19,1141.333333,10.00754897,1107,1158,2976,2976
MISM,11/1/19,1151.154167,3.831078466,1139,1159,2880,2880
MISM,12/1/19,1153.715152,6.432932965,1141,1168,2970,2970
MISM,1/1/20,1150.629032,4.408031311,1140,1161,2976,2976
MISM,2/1/20,1142.913793,6.264137739,1129,1154,2784,2784
MISM,3/1/20,1139.27957,6.550319714,1125,1154,2976,2976
MISM,4/1/20,1142.533333,10.54560219,1112,1163,2880,2880
MISM,5/1/20,1139.788978,7.977099123,1121,1153,2976,2976
MISM,6/1/20,1137.895833,9.967727535,1119,1167,2880,2880
MISM,7/1/20,1143.067204,10.22941153,1106,1170,2976,2976
MISM,8/1/20,1145.103495,12.16420045,1111,1167,2976,2976
MISM,9/1/20,1144.008333,6.316856381,1126,1163,2880,2880
MISM,10/1/20,1133.198925,5.093090939,1119,1146,2976,2976
MISM,11/1/20,1136.370833,11.16872945,1114,1153,2880,2880
MISM,12/1/20,1137.002688,5.486238812,1124,1153,2976,2976
MISM,1/1/21,1141.268817,8.596597846,1127,1163,2976,2976
MISM,2/1/21,1139.125,4.635665365,1130,1150,2688,2688
MISM,3/1/21,1146.772849,7.177426009,1137,1164,2976,2976
MISM,4/1/21,1140.765278,8.745034373,1122,1163,2880,2880
MISM,5/1/21,1143.50672,7.867641753,1120,1162,2976,2976
MISM,6/1/21,1141.673611,8.552012664,1123,1157,2880,2880
MISM,7/1/21,1147.602151,7.427791244,1127,1170,2976,2976
MISM,8/1/21,1147.583333,9.816524113,1130,1171,2976,2976
MISM,9/1/21,1134.808333,7.163408039,1124,1152,2880,2880
MISM,10/1/21,1139.534946,6.558652393,1125,1152,2976,2976
MISM,11/1/21,1135.2875,5.576396381,1119,1146,2880,2880
MISM,12/1/21,1134.557796,5.91019797,1121,1145,2976,2976
MISM,1/1/22,1138.909704,8.884606467,1122,1157,2968,2968
MISM,2/1/22,1130.431548,4.366337924,1122,1143,2688,2688
MISM,3/1/22,1131.369624,4.536070708,1120,1143,2976,2976
MISM,4/1/22,1131.780556,4.96508515,1123,1144,2880,2880
MISM,5/1/22,1129.266129,6.928135932,1115,1142,2976,2976
MISM,6/1/22,1138.218056,5.753627036,1123,1152,2880,2880
MISM,7/1/22,1127.041667,8.042551402,1105,1141,2976,2976
MISM,8/1/22,1128.967742,7.198246827,1106,1142,2976,2976
MISM,9/1/22,1125.940278,6.830090133,1109,1141,2880,2880
MISM,10/1/22,1129.875,7.915976824,1117,1147,2976,2976
MISM,11/1/22,1126.276389,6.808857461,1110,1142,2880,2880
MISM,12/1/22,1126.312986,5.978169277,1108,1135,1671,1671